QPF
0.00 0.01 0.01 0.02 0.02 0.02 0.01 0.02 0.02 0.02 0.02 0.02 0.02 0.02 0.02 0.02 0.02 0.03 0.04 0.03 0.02 0.04 0.05 0.07 0.07 0.06 0.07 0.11 0.12 0.14 0.17 0.18 0.16 0.13 0.10 0.10 0.09 0.09 0.10 0.12 0.15 0.11 0.12
0.00 0.00 0.01 0.02 0.02 0.02 0.02 0.03 0.02 0.02 0.02 0.03 0.03 0.02 0.02 0.02 0.03 0.03 0.03 0.03 0.03 0.04 0.06 0.07 0.06 0.05 0.06 0.07 0.07 0.08 0.09 0.11 0.14 0.14 0.11 0.10 0.10 0.10 0.12 0.14 0.19 0.12 0.12
0.00 0.00 0.01 0.02 0.02 0.02 0.03 0.02 0.02 0.02 0.02 0.04 0.07 0.03 0.02 0.02 0.02 0.03 0.04 0.03 0.04 0.05 0.06 0.06 0.06 0.05 0.06 0.05 0.06 0.09 0.11 0.11 0.13 0.13 0.11 0.09 0.09 0.09 0.12 0.14 0.20 0.15 0.11
0.00 0.00 0.01 0.02 0.02 0.02 0.01 0.02 0.01 0.01 0.04 0.12 0.16 0.04 0.01 0.02 0.02 0.03 0.04 0.04 0.04 0.05 0.06 0.07 0.06 0.05 0.06 0.05 0.07 0.11 0.12 0.12 0.13 0.12 0.10 0.08 0.09 0.10 0.11 0.14 0.19 0.19 0.11
0.00 0.00 0.01 0.02 0.01 0.01 0.01 0.01 0.01 0.01 0.06 0.11 0.05 0.01 0.01 0.02 0.02 0.02 0.03 0.04 0.04 0.06 0.09 0.07 0.05 0.04 0.05 0.06 0.11 0.16 0.13 0.12 0.16 0.12 0.08 0.07 0.11 0.18 0.15 0.13 0.15 0.20 0.12
0.00 0.00 0.01 0.01 0.01 0.01 0.01 0.00 0.01 0.01 0.01 0.01 0.01 0.01 0.01 0.02 0.02 0.02 0.02 0.03 0.04 0.06 0.09 0.08 0.05 0.03 0.04 0.05 0.10 0.16 0.15 0.14 0.15 0.11 0.07 0.05 0.11 0.25 0.22 0.17 0.18 0.20 0.14
0.01 0.00 0.01 0.01 0.01 0.01 0.01 0.00 0.01 0.01 0.01 0.01 0.01 0.01 0.01 0.02 0.03 0.03 0.03 0.03 0.04 0.06 0.08 0.07 0.04 0.05 0.04 0.06 0.07 0.14 0.13 0.12 0.12 0.07 0.05 0.06 0.08 0.23 0.27 0.24 0.22 0.18 0.14
0.01 0.01 0.00 0.01 0.01 0.01 0.01 0.01 0.01 0.01 0.01 0.01 0.00 0.00 0.01 0.02 0.04 0.04 0.04 0.04 0.05 0.06 0.08 0.06 0.03 0.04 0.07 0.06 0.07 0.11 0.09 0.08 0.07 0.05 0.07 0.08 0.11 0.21 0.28 0.29 0.25 0.17 0.14
0.01 0.01 0.01 0.01 0.01 0.01 0.01 0.00 0.01 0.01 0.01 0.01 0.01 0.01 0.01 0.01 0.02 0.04 0.04 0.05 0.05 0.05 0.06 0.05 0.04 0.04 0.07 0.11 0.10 0.07 0.05 0.09 0.06 0.06 0.10 0.14 0.19 0.23 0.25 0.26 0.24 0.19 0.15
0.01 0.01 0.01 0.01 0.01 0.01 0.01 0.01 0.01 0.01 0.01 0.01 0.01 0.01 0.01 0.01 0.02 0.03 0.04 0.06 0.05 0.05 0.04 0.04 0.04 0.05 0.06 0.08 0.09 0.09 0.07 0.08 0.05 0.06 0.13 0.20 0.25 0.26 0.23 0.23 0.24 0.21 0.18
0.01 0.01 0.00 0.01 0.01 0.01 0.01 0.01 0.01 0.01 0.02 0.02 0.01 0.01 0.01 0.01 0.01 0.02 0.03 0.05 0.05 0.04 0.04 0.03 0.03 0.04 0.03 0.04 0.08 0.09 0.07 0.04 0.05 0.05 0.10 0.18 0.24 0.26 0.23 0.23 0.23 0.22 0.19
0.01 0.00 0.00 0.01 0.01 0.01 0.01 0.01 0.02 0.02 0.02 0.02 0.02 0.01 0.01 0.01 0.01 0.01 0.01 0.04 0.05 0.04 0.04 0.03 0.03 0.03 0.02 0.02 0.03 0.03 0.03 0.03 0.06 0.06 0.07 0.11 0.17 0.21 0.22 0.20 0.20 0.19 0.15
0.00 0.00 0.00 0.01 0.00 0.00 0.01 0.02 0.02 0.02 0.02 0.02 0.03 0.02 0.01 0.00 0.01 0.01 0.01 0.01 0.04 0.05 0.03 0.03 0.02 0.02 0.01 0.01 0.01 0.01 0.01 0.02 0.03 0.03 0.05 0.08 0.12 0.17 0.16 0.16 0.17 0.15 0.14
0.00 0.00 0.01 0.01 0.01 0.01 0.01 0.01 0.01 0.01 0.01 0.01 0.02 0.02 0.01 0.01 0.01 0.01 0.01 0.01 0.02 0.02 0.02 0.02 0.02 0.02 0.01 0.02 0.01 0.01 0.01 0.01 0.01 0.01 0.03 0.06 0.10 0.16 0.16 0.14 0.15 0.16 0.14
0.00 0.01 0.01 0.01 0.01 0.01 0.01 0.01 0.01 0.01 0.01 0.01 0.01 0.02 0.02 0.02 0.01 0.01 0.01 0.02 0.02 0.02 0.03 0.03 0.02 0.01 0.02 0.03 0.02 0.01 0.01 0.00 0.01 0.01 0.02 0.04 0.08 0.15 0.19 0.18 0.18 0.14 0.11
0.02 0.02 0.01 0.02 0.01 0.01 0.01 0.02 0.02 0.02 0.01 0.01 0.00 0.01 0.01 0.01 0.02 0.01 0.02 0.02 0.02 0.03 0.04 0.05 0.03 0.01 0.02 0.02 0.02 0.01 0.01 0.00 0.00 0.01 0.02 0.03 0.04 0.08 0.17 0.18 0.14 0.12 0.10
0.09 0.06 0.03 0.03 0.04 0.03 0.02 0.02 0.02 0.02 0.02 0.01 0.01 0.02 0.01 0.01 0.02 0.01 0.02 0.03 0.03 0.03 0.04 0.05 0.04 0.02 0.02 0.02 0.02 0.02 0.01 0.01 0.00 0.00 0.00 0.01 0.03 0.05 0.09 0.18 0.17 0.14 0.14
0.16 0.17 0.08 0.05 0.05 0.03 0.02 0.02 0.03 0.03 0.03 0.02 0.02 0.02 0.01 0.01 0.02 0.02 0.02 0.04 0.04 0.03 0.02 0.03 0.02 0.03 0.02 0.02 0.04 0.03 0.03 0.02 0.02 0.01 0.01 0.01 0.01 0.03 0.04 0.11 0.15 0.11 0.11
0.10 0.15 0.10 0.08 0.06 0.04 0.03 0.03 0.04 0.05 0.05 0.04 0.03 0.02 0.02 0.02 0.03 0.03 0.04 0.06 0.05 0.03 0.03 0.03 0.03 0.03 0.03 0.04 0.05 0.04 0.04 0.03 0.02 0.01 0.01 0.01 0.01 0.01 0.02 0.04 0.05 0.06 0.07
0.05 0.07 0.06 0.04 0.03 0.03 0.04 0.05 0.05 0.06 0.05 0.04 0.03 0.03 0.03 0.03 0.03 0.03 0.04 0.06 0.06 0.05 0.04 0.04 0.03 0.03 0.03 0.04 0.03 0.02 0.02 0.02 0.02 0.02 0.01 0.01 0.01 0.01 0.01 0.02 0.03 0.03 0.04
0.03 0.04 0.03 0.02 0.01 0.02 0.03 0.05 0.06 0.05 0.03 0.03 0.03 0.04 0.03 0.02 0.03 0.03 0.04 0.05 0.06 0.05 0.05 0.05 0.03 0.03 0.03 0.03 0.03 0.01 0.01 0.01 0.01 0.01 0.01 0.01 0.01 0.01 0.01 0.01 0.01 0.01 0.02
0.02 0.03 0.02 0.02 0.02 0.02 0.03 0.05 0.05 0.05 0.05 0.04 0.04 0.03 0.03 0.02 0.02 0.03 0.05 0.05 0.05 0.04 0.04 0.05 0.05 0.04 0.03 0.03 0.02 0.02 0.01 0.01 0.01 0.01 0.01 0.01 0.01 0.01 0.01 0.01 0.01 0.01 0.01
0.03 0.04 0.03 0.03 0.03 0.04 0.06 0.06 0.07 0.07 0.06 0.04 0.03 0.03 0.02 0.02 0.03 0.04 0.07 0.08 0.07 0.05 0.03 0.04 0.04 0.05 0.04 0.03 0.02 0.01 0.01 0.01 0.01 0.02 0.02 0.01 0.01 0.02 0.02 0.02 0.02 0.01 0.01
0.03 0.03 0.03 0.03 0.03 0.05 0.08 0.10 0.08 0.06 0.04 0.03 0.02 0.03 0.03 0.03 0.03 0.03 0.07 0.11 0.10 0.07 0.03 0.03 0.04 0.04 0.04 0.04 0.03 0.03 0.02 0.02 0.02 0.02 0.02 0.02 0.02 0.02 0.02 0.02 0.02 0.02 0.02
0.04 0.04 0.04 0.04 0.04 0.05 0.06 0.07 0.05 0.03 0.03 0.03 0.03 0.03 0.04 0.05 0.04 0.03 0.06 0.07 0.06 0.05 0.05 0.04 0.03 0.04 0.04 0.04 0.04 0.04 0.04 0.04 0.03 0.03 0.02 0.02 0.02 0.02 0.02 0.02 0.02 0.02 0.02
0.03 0.04 0.05 0.06 0.05 0.06 0.06 0.04 0.03 0.03 0.03 0.04 0.03 0.03 0.04 0.06 0.04 0.03 0.03 0.03 0.04 0.04 0.05 0.04 0.03 0.03 0.03 0.04 0.04 0.04 0.05 0.04 0.03 0.02 0.02 0.01 0.01 0.01 0.01 0.01 0.01 0.01 0.01
MSLP
1010.28 1009.82 1009.52 1009.40 1009.42 1009.53 1009.64 1009.66 1009.54 1009.24 1008.80 1008.27 1007.73 1007.27 1006.92 1006.71 1006.61 1006.54 1006.43 1006.20 1005.80 1005.22 1004.52 1003.77 1003.07 1002.53 1002.23 1002.21 1002.47 1002.96 1003.63 1004.40 1005.21 1006.00 1006.74 1007.42 1008.03 1008.59 1009.11 1009.59 1010.04 1010.46 1010.85
1010.34 1009.94 1009.70 1009.62 1009.66 1009.78 1009.87 1009.87 1009.72 1009.41 1008.98 1008.47 1007.99 1007.59 1007.32 1007.17 1007.12 1007.11 1007.04 1006.87 1006.56 1006.11 1005.57 1005.00 1004.49 1004.12 1003.95 1003.98 1004.22 1004.62 1005.15 1005.74 1006.35 1006.96 1007.54 1008.10 1008.63 1009.13 1009.60 1010.05 1010.46 1010.85 1011.21
1010.32 1009.99 1009.80 1009.76 1009.84 1009.96 1010.06 1010.06 1009.92 1009.63 1009.23 1008.78 1008.36 1008.02 1007.81 1007.71 1007.69 1007.69 1007.65 1007.51 1007.26 1006.91 1006.50 1006.10 1005.77 1005.56 1005.49 1005.59 1005.81 1006.14 1006.53 1006.96 1007.40 1007.85 1008.29 1008.74 1009.19 1009.63 1010.06 1010.47 1010.86 1011.22 1011.57
1010.26 1009.99 1009.84 1009.85 1009.96 1010.11 1010.23 1010.25 1010.14 1009.88 1009.53 1009.14 1008.79 1008.51 1008.34 1008.26 1008.25 1008.24 1008.18 1008.05 1007.84 1007.56 1007.27 1007.00 1006.82 1006.74 1006.78 1006.93 1007.15 1007.42 1007.71 1008.01 1008.32 1008.63 1008.97 1009.33 1009.71 1010.10 1010.50 1010.88 1011.24 1011.58 1011.90
1010.20 1009.98 1009.88 1009.92 1010.07 1010.26 1010.40 1010.45 1010.37 1010.16 1009.86 1009.53 1009.23 1009.00 1008.85 1008.78 1008.75 1008.71 1008.63 1008.49 1008.29 1008.06 1007.85 1007.69 1007.63 1007.66 1007.79 1007.98 1008.20 1008.43 1008.66 1008.87 1009.08 1009.31 1009.58 1009.87 1010.20 1010.55 1010.91 1011.26 1011.59 1011.91 1012.23
1010.20 1010.02 1009.96 1010.04 1010.21 1010.42 1010.59 1010.67 1010.62 1010.44 1010.19 1009.90 1009.64 1009.45 1009.32 1009.24 1009.19 1009.12 1009.00 1008.84 1008.64 1008.45 1008.30 1008.22 1008.23 1008.35 1008.54 1008.76 1008.99 1009.20 1009.39 1009.55 1009.71 1009.90 1010.12 1010.38 1010.68 1011.00 1011.32 1011.63 1011.94 1012.23 1012.53
1010.33 1010.18 1010.14 1010.24 1010.43 1010.64 1010.82 1010.90 1010.87 1010.72 1010.49 1010.24 1010.01 1009.84 1009.73 1009.65 1009.58 1009.49 1009.35 1009.18 1008.98 1008.80 1008.68 1008.65 1008.72 1008.88 1009.10 1009.35 1009.58 1009.78 1009.95 1010.09 1010.24 1010.40 1010.61 1010.86 1011.14 1011.43 1011.73 1012.01 1012.28 1012.54 1012.83
1010.59 1010.46 1010.44 1010.54 1010.73 1010.93 1011.10 1011.17 1011.12 1010.98 1010.77 1010.54 1010.34 1010.20 1010.10 1010.04 1009.97 1009.87 1009.73 1009.55 1009.35 1009.18 1009.08 1009.07 1009.16 1009.34 1009.57 1009.81 1010.04 1010.23 1010.39 1010.54 1010.68 1010.86 1011.07 1011.32 1011.60 1011.88 1012.14 1012.39 1012.62 1012.85 1013.10
1010.98 1010.87 1010.86 1010.95 1011.11 1011.29 1011.41 1011.45 1011.38 1011.23 1011.02 1010.82 1010.65 1010.54 1010.47 1010.44 1010.39 1010.31 1010.17 1009.99 1009.80 1009.64 1009.54 1009.53 1009.61 1009.78 1010.00 1010.23 1010.44 1010.63 1010.78 1010.93 1011.09 1011.28 1011.52 1011.78 1012.05 1012.32 1012.56 1012.77 1012.96 1013.15 1013.37
1011.42 1011.33 1011.33 1011.41 1011.54 1011.67 1011.75 1011.74 1011.64 1011.47 1011.27 1011.09 1010.95 1010.88 1010.86 1010.86 1010.85 1010.79 1010.68 1010.51 1010.33 1010.16 1010.06 1010.04 1010.11 1010.25 1010.44 1010.65 1010.84 1011.01 1011.17 1011.32 1011.49 1011.70 1011.95 1012.22 1012.49 1012.75 1012.97 1013.15 1013.30 1013.45 1013.62
1011.83 1011.78 1011.79 1011.86 1011.96 1012.05 1012.08 1012.03 1011.90 1011.71 1011.52 1011.36 1011.26 1011.24 1011.26 1011.31 1011.34 1011.32 1011.22 1011.07 1010.90 1010.73 1010.62 1010.58 1010.63 1010.74 1010.91 1011.09 1011.26 1011.42 1011.57 1011.72 1011.90 1012.11 1012.36 1012.64 1012.91 1013.15 1013.35 1013.51 1013.62 1013.73 1013.85
1012.14 1012.13 1012.17 1012.24 1012.32 1012.38 1012.37 1012.29 1012.13 1011.95 1011.77 1011.64 1011.59 1011.61 1011.68 1011.77 1011.83 1011.84 1011.77 1011.63 1011.46 1011.30 1011.18 1011.12 1011.15 1011.25 1011.39 1011.55 1011.71 1011.86 1011.99 1012.14 1012.31 1012.51 1012.75 1013.01 1013.27 1013.50 1013.68 1013.81 1013.90 1013.97 1014.04
1012.28 1012.34 1012.42 1012.51 1012.59 1012.63 1012.60 1012.51 1012.35 1012.18 1012.02 1011.93 1011.91 1011.97 1012.08 1012.20 1012.29 1012.31 1012.26 1012.13 1011.97 1011.81 1011.68 1011.63 1011.65 1011.74 1011.87 1012.03 1012.18 1012.32 1012.45 1012.58 1012.73 1012.90 1013.11 1013.33 1013.56 1013.77 1013.93 1014.04 1014.11 1014.15 1014.18
1012.27 1012.40 1012.53 1012.66 1012.76 1012.80 1012.78 1012.69 1012.55 1012.40 1012.28 1012.22 1012.23 1012.32 1012.45 1012.59 1012.69 1012.72 1012.67 1012.55 1012.40 1012.24 1012.12 1012.07 1012.10 1012.20 1012.35 1012.51 1012.67 1012.81 1012.93 1013.03 1013.14 1013.26 1013.42 1013.59 1013.77 1013.94 1014.08 1014.18 1014.23 1014.25 1014.25
1012.13 1012.33 1012.52 1012.69 1012.83 1012.90 1012.91 1012.85 1012.75 1012.64 1012.55 1012.51 1012.55 1012.65 1012.78 1012.92 1013.01 1013.04 1013.00 1012.89 1012.75 1012.60 1012.51 1012.48 1012.53 1012.65 1012.82 1013.00 1013.17 1013.31 1013.41 1013.49 1013.55 1013.61 1013.69 1013.80 1013.92 1014.04 1014.14 1014.22 1014.26 1014.27 1014.25
1011.93 1012.19 1012.44 1012.66 1012.84 1012.96 1013.02 1013.01 1012.96 1012.89 1012.83 1012.82 1012.86 1012.95 1013.07 1013.19 1013.28 1013.31 1013.27 1013.17 1013.05 1012.94 1012.87 1012.87 1012.95 1013.10 1013.29 1013.50 1013.68 1013.82 1013.91 1013.95 1013.96 1013.95 1013.96 1013.98 1014.02 1014.08 1014.14 1014.19 1014.21 1014.21 1014.17
1011.74 1012.04 1012.33 1012.60 1012.84 1013.02 1013.13 1013.19 1013.19 1013.17 1013.14 1013.14 1013.18 1013.25 1013.35 1013.44 1013.52 1013.54 1013.52 1013.45 1013.36 1013.28 1013.25 1013.29 1013.39 1013.57 1013.78 1014.01 1014.20 1014.34 1014.42 1014.43 1014.38 1014.31 1014.24 1014.18 1014.14 1014.13 1014.13 1014.14 1014.14 1014.12 1014.07
1011.61 1011.93 1012.25 1012.56 1012.84 1013.08 1013.26 1013.39 1013.45 1013.48 1013.48 1013.49 1013.51 1013.56 1013.62 1013.69 1013.76 1013.79 1013.79 1013.75 1013.71 1013.68 1013.69 1013.75 1013.88 1014.07 1014.30 1014.52 1014.72 1014.87 1014.93 1014.92 1014.84 1014.72 1014.57 1014.43 1014.32 1014.23 1014.18 1014.14 1014.10 1014.05 1013.97
1011.55 1011.87 1012.21 1012.54 1012.86 1013.16 1013.41 1013.60 1013.74 1013.81 1013.84 1013.85 1013.86 1013.88 1013.92 1013.97 1014.02 1014.07 1014.11 1014.12 1014.13 1014.14 1014.19 1014.27 1014.41 1014.60 1014.82 1015.05 1015.24 1015.39 1015.45 1015.44 1015.34 1015.18 1014.99 1014.79 1014.61 1014.45 1014.33 1014.23 1014.14 1014.05 1013.93
1011.53 1011.85 1012.18 1012.52 1012.88 1013.23 1013.55 1013.82 1014.02 1014.14 1014.21 1014.22 1014.22 1014.22 1014.23 1014.27 1014.34 1014.41 1014.48 1014.55 1014.61 1014.67 1014.74 1014.84 1014.97 1015.15 1015.35 1015.56 1015.75 1015.89 1015.97 1015.97 1015.88 1015.71 1015.50 1015.26 1015.03 1014.81 1014.62 1014.45 1014.30 1014.15 1013.99
1011.52 1011.82 1012.14 1012.49 1012.87 1013.26 1013.65 1013.99 1014.27 1014.45 1014.56 1014.59 1014.58 1014.57 1014.57 1014.61 1014.68 1014.79 1014.90 1015.02 1015.13 1015.23 1015.32 1015.42 1015.53 1015.68 1015.85 1016.04 1016.22 1016.38 1016.48 1016.50 1016.44 1016.30 1016.09 1015.84 1015.56 1015.30 1015.04 1014.81 1014.60 1014.39 1014.16
1011.47 1011.75 1012.06 1012.41 1012.81 1013.25 1013.70 1014.11 1014.46 1014.71 1014.86 1014.93 1014.93 1014.92 1014.92 1014.96 1015.05 1015.19 1015.35 1015.51 1015.66 1015.78 1015.89 1015.98 1016.07 1016.18 1016.32 1016.48 1016.66 1016.82 1016.95 1017.02 1017.00 1016.90 1016.71 1016.47 1016.18 1015.87 1015.57 1015.28 1015.00 1014.72 1014.45
1011.34 1011.62 1011.91 1012.27 1012.69 1013.17 1013.67 1014.16 1014.57 1014.89 1015.10 1015.21 1015.24 1015.25 1015.26 1015.31 1015.42 1015.58 1015.78 1015.97 1016.16 1016.30 1016.41 1016.48 1016.55 1016.63 1016.73 1016.88 1017.05 1017.23 1017.39 1017.50 1017.53 1017.48 1017.33 1017.09 1016.80 1016.47 1016.13 1015.78 1015.45 1015.12 1014.80
1011.11 1011.41 1011.72 1012.08 1012.52 1013.03 1013.58 1014.12 1014.61 1014.99 1015.26 1015.42 1015.50 1015.53 1015.56 1015.64 1015.76 1015.94 1016.16 1016.39 1016.59 1016.75 1016.86 1016.92 1016.97 1017.02 1017.10 1017.23 1017.40 1017.59 1017.77 1017.92 1018.00 1017.98 1017.87 1017.65 1017.36 1017.02 1016.65 1016.27 1015.90 1015.53 1015.17
1010.83 1011.17 1011.50 1011.88 1012.33 1012.86 1013.44 1014.03 1014.57 1015.01 1015.34 1015.55 1015.67 1015.74 1015.81 1015.90 1016.05 1016.25 1016.48 1016.73 1016.94 1017.11 1017.23 1017.29 1017.33 1017.37 1017.44 1017.55 1017.71 1017.91 1018.11 1018.28 1018.38 1018.39 1018.30 1018.10 1017.82 1017.47 1017.08 1016.69 1016.29 1015.91 1015.53
1010.52 1010.92 1011.29 1011.69 1012.15 1012.69 1013.29 1013.89 1014.47 1014.96 1015.33 1015.60 1015.76 1015.88 1015.97 1016.09 1016.26 1016.48 1016.73 1016.98 1017.21 1017.39 1017.52 1017.59 1017.64 1017.68 1017.74 1017.85 1018.01 1018.20 1018.40 1018.57 1018.68 1018.70 1018.61 1018.42 1018.14 1017.80 1017.42 1017.02 1016.63 1016.24 1015.87
Thickness
5794 5795 5792 5789 5786 5784 5782 5781 5780 5779 5777 5776 5775 5775 5774 5773 5772 5771 5771 5770 5770 5769 5768 5767 5766 5766 5764 5762 5761 5760 5759 5758 5757 5756 5756 5755 5754 5754 5753 5753 5751 5750 5749
5800 5796 5792 5788 5785 5783 5780 5779 5778 5777 5776 5775 5774 5773 5772 5771 5770 5769 5769 5768 5768 5767 5766 5765 5764 5764 5762 5761 5759 5758 5757 5756 5755 5754 5754 5753 5753 5752 5752 5752 5750 5749 5748
5800 5796 5792 5788 5784 5781 5779 5777 5776 5775 5774 5773 5772 5771 5770 5769 5768 5767 5766 5766 5765 5765 5764 5763 5762 5761 5760 5758 5757 5756 5755 5754 5753 5753 5753 5752 5752 5752 5751 5750 5749 5748 5746
5800 5795 5790 5786 5783 5780 5778 5776 5775 5774 5772 5771 5770 5769 5767 5766 5765 5764 5764 5763 5763 5762 5761 5761 5760 5759 5758 5756 5755 5754 5753 5753 5752 5751 5751 5751 5751 5751 5750 5749 5747 5746 5744
5798 5793 5788 5785 5781 5779 5776 5774 5773 5772 5770 5769 5768 5766 5765 5764 5763 5762 5761 5761 5760 5760 5759 5758 5757 5756 5755 5754 5753 5752 5752 5751 5751 5750 5749 5749 5749 5749 5748 5747 5745 5744 5743
5794 5791 5787 5783 5780 5777 5775 5773 5771 5770 5768 5766 5765 5764 5763 5761 5760 5759 5759 5758 5757 5757 5756 5756 5755 5754 5753 5752 5752 5751 5750 5750 5749 5748 5748 5748 5747 5747 5746 5745 5744 5743 5741
5791 5788 5785 5782 5778 5776 5773 5771 5770 5768 5766 5764 5763 5761 5760 5759 5758 5757 5756 5755 5755 5754 5754 5753 5753 5752 5751 5750 5750 5749 5749 5748 5747 5747 5747 5746 5746 5745 5744 5744 5743 5741 5740
5790 5786 5783 5780 5777 5774 5772 5770 5768 5766 5764 5763 5761 5759 5758 5756 5755 5754 5753 5753 5752 5751 5751 5751 5750 5749 5749 5749 5748 5747 5747 5746 5745 5744 5745 5745 5744 5743 5742 5742 5741 5740 5738
5788 5784 5781 5778 5775 5773 5770 5768 5766 5764 5762 5760 5759 5757 5756 5754 5753 5752 5751 5750 5749 5749 5748 5748 5748 5747 5746 5746 5746 5745 5744 5744 5743 5742 5742 5743 5743 5742 5740 5739 5739 5738 5737
5784 5781 5778 5776 5773 5771 5768 5766 5764 5762 5760 5758 5756 5755 5754 5752 5751 5750 5749 5748 5747 5746 5746 5746 5745 5745 5744 5744 5743 5742 5742 5741 5740 5740 5740 5741 5741 5740 5739 5737 5737 5736 5734
5780 5778 5776 5774 5771 5769 5767 5764 5762 5760 5758 5756 5754 5753 5751 5750 5748 5747 5747 5746 5745 5744 5743 5743 5743 5742 5742 5741 5741 5740 5739 5739 5738 5738 5738 5739 5739 5738 5737 5736 5735 5734 5732
5777 5776 5774 5772 5769 5767 5765 5762 5760 5758 5756 5754 5752 5751 5749 5748 5746 5745 5744 5744 5742 5741 5741 5741 5740 5740 5739 5739 5738 5738 5737 5737 5737 5736 5736 5736 5736 5736 5735 5734 5733 5732 5730
5778 5775 5773 5771 5768 5766 5763 5761 5758 5756 5754 5752 5751 5749 5748 5746 5744 5743 5742 5741 5740 5739 5738 5738 5738 5737 5737 5736 5736 5736 5736 5736 5735 5735 5735 5735 5735 5734 5734 5732 5732 5730 5729
5777 5775 5772 5770 5767 5764 5761 5759 5757 5755 5753 5751 5749 5747 5746 5744 5742 5741 5739 5738 5737 5736 5736 5735 5735 5735 5734 5734 5734 5734 5734 5734 5733 5733 5733 5733 5733 5733 5732 5731 5730 5729 5727
5775 5774 5772 5769 5766 5763 5760 5757 5755 5753 5751 5749 5747 5746 5744 5742 5740 5738 5737 5736 5735 5734 5734 5734 5733 5733 5733 5732 5732 5732 5732 5732 5732 5731 5731 5732 5732 5731 5730 5729 5729 5728 5726
5775 5773 5771 5768 5765 5762 5759 5756 5753 5751 5749 5747 5746 5744 5742 5740 5738 5737 5735 5734 5733 5733 5733 5732 5732 5732 5731 5731 5730 5730 5730 5730 5729 5729 5729 5730 5730 5730 5729 5729 5728 5727 5725
5776 5772 5770 5768 5765 5761 5758 5755 5752 5750 5747 5745 5744 5742 5740 5739 5737 5735 5734 5732 5732 5731 5731 5730 5730 5730 5730 5729 5728 5728 5727 5727 5727 5727 5727 5727 5727 5727 5728 5727 5727 5726 5724
5776 5771 5768 5768 5763 5760 5758 5754 5751 5748 5746 5744 5742 5740 5738 5737 5736 5734 5732 5731 5730 5729 5729 5728 5728 5727 5726 5725 5725 5724 5724 5724 5724 5724 5725 5725 5725 5725 5725 5725 5725 5724 5723
5775 5771 5767 5765 5761 5759 5756 5753 5750 5747 5744 5742 5739 5737 5736 5735 5734 5732 5731 5730 5729 5728 5727 5727 5725 5724 5723 5722 5721 5721 5721 5721 5721 5722 5722 5722 5722 5722 5722 5722 5722 5721 5721
5773 5769 5765 5762 5759 5756 5753 5749 5746 5744 5741 5739 5737 5735 5734 5733 5732 5730 5729 5728 5727 5725 5724 5724 5722 5722 5720 5719 5719 5718 5718 5719 5719 5719 5719 5719 5719 5719 5719 5719 5719 5718 5719
5769 5765 5762 5759 5757 5754 5749 5746 5742 5740 5738 5736 5735 5734 5733 5731 5730 5728 5727 5726 5724 5723 5722 5722 5720 5719 5717 5717 5715 5713 5714 5716 5716 5717 5717 5717 5717 5717 5716 5716 5716 5716 5716
5767 5764 5761 5757 5755 5753 5750 5747 5743 5739 5736 5735 5734 5732 5731 5730 5728 5726 5725 5723 5722 5721 5720 5719 5718 5716 5714 5713 5711 5708 5706 5708 5711 5714 5714 5714 5714 5714 5714 5713 5713 5713 5713
5763 5761 5759 5756 5753 5751 5748 5744 5740 5736 5733 5731 5729 5728 5728 5727 5726 5725 5723 5722 5720 5719 5717 5716 5716 5714 5711 5710 5710 5707 5702 5700 5703 5707 5709 5710 5710 5710 5710 5710 5710 5710 5710
5760 5758 5755 5752 5749 5747 5745 5742 5738 5733 5729 5728 5727 5726 5725 5724 5723 5722 5720 5719 5717 5716 5715 5714 5713 5712 5711 5707 5706 5706 5705 5704 5700 5699 5703 5705 5706 5706 5707 5708 5708 5708 5707
5756 5754 5751 5748 5745 5743 5741 5739 5735 5731 5729 5726 5724 5723 5721 5720 5719 5718 5717 5716 5714 5713 5712 5712 5711 5710 5709 5706 5704 5702 5701 5700 5699 5696 5695 5698 5700 5703 5704 5704 5704 5704 5704
5751 5749 5746 5743 5739 5738 5736 5734 5732 5729 5725 5722 5720 5718 5717 5715 5715 5715 5714 5712 5711 5710 5709 5709 5708 5707 5706 5704 5702 5701 5699 5697 5695 5693 5692 5692 5693 5697 5699 5700 5701 5701 5701